FFL693 KIAG-KPIT

Flight info

Callsign FFL693
Flight time 0h 59m
Altitude 26000
Route JHW CIP HAYNZ7
Aircraft PC12/L-SDFGRWY/S

Departure

Time 2026-04-28 01:08
Airport Niagara Falls International Airport (KIAG)

Arrival

Time 2026-04-28 02:07
Airport Pittsburgh International Airport (KPIT)
Time Latitude Longitude Altitude Speed Heading
2026-04-28 00:58 43.10017 -78.94455 590 ft 0 kts 86°
2026-04-28 01:06 43.10018 -78.94454 590 ft 1 kts 85°
2026-04-28 01:06 43.10051 -78.94442 590 ft 2 kts
2026-04-28 01:06 43.10080 -78.94440 591 ft 11 kts
2026-04-28 01:06 43.10157 -78.94488 591 ft 16 kts 323°
2026-04-28 01:07 43.10253 -78.94435 592 ft 31 kts 54°
2026-04-28 01:07 43.10526 -78.93997 592 ft 89 kts 47°
2026-04-28 01:07 43.11018 -78.93243 723 ft 125 kts 51°
2026-04-28 01:07 43.11411 -78.92601 1009 ft 136 kts 53°
2026-04-28 01:08 43.11574 -78.90933 1717 ft 141 kts 126°
2026-04-28 01:08 43.10785 -78.90333 2471 ft 135 kts 174°
2026-04-28 01:08 43.09790 -78.90364 2914 ft 154 kts 179°
2026-04-28 01:08 43.08624 -78.90420 2996 ft 180 kts 180°
2026-04-28 01:09 43.07390 -78.90472 3497 ft 170 kts 179°
2026-04-28 01:09 43.06299 -78.90522 4489 ft 145 kts 180°
2026-04-28 01:09 43.05333 -78.90686 5306 ft 141 kts 189°
2026-04-28 01:09 43.04355 -78.90970 5936 ft 146 kts 189°
2026-04-28 01:10 43.03345 -78.91237 6595 ft 149 kts 190°
2026-04-28 01:10 43.02314 -78.91500 7223 ft 152 kts 190°
2026-04-28 01:10 43.01263 -78.91764 7872 ft 155 kts 190°
2026-04-28 01:10 43.00196 -78.92032 8528 ft 157 kts 191°
2026-04-28 01:11 42.99110 -78.92304 9184 ft 160 kts 191°
2026-04-28 01:11 42.97993 -78.92583 9776 ft 170 kts 191°
2026-04-28 01:11 42.96751 -78.92897 9987 ft 196 kts 191°
2026-04-28 01:11 42.95322 -78.93259 10018 ft 219 kts 191°
2026-04-28 01:12 42.93776 -78.93645 10012 ft 231 kts 191°
2026-04-28 01:12 42.92180 -78.94043 10010 ft 235 kts 191°
2026-04-28 01:12 42.90562 -78.94446 10011 ft 237 kts 191°
2026-04-28 01:12 42.88937 -78.94851 10010 ft 238 kts 191°
2026-04-28 01:13 42.87308 -78.95258 10009 ft 238 kts 191°
2026-04-28 01:13 42.84049 -78.96069 10008 ft 238 kts 191°
2026-04-28 01:13 42.82418 -78.96475 10009 ft 238 kts 191°
2026-04-28 01:14 42.80791 -78.96880 10009 ft 238 kts 191°
2026-04-28 01:14 42.79733 -78.97144 10260 ft 227 kts 191°
2026-04-28 01:14 42.78265 -78.97506 11061 ft 202 kts 192°
2026-04-28 01:14 42.76967 -78.97824 12091 ft 177 kts 192°
2026-04-28 01:15 42.75788 -78.98114 12920 ft 172 kts 193°
2026-04-28 01:15 42.74595 -78.98414 13565 ft 176 kts 193°
2026-04-28 01:15 42.72989 -78.98814 14403 ft 178 kts 193°
2026-04-28 01:15 42.71765 -78.99117 14996 ft 180 kts 193°
2026-04-28 01:16 42.70931 -78.99324 15400 ft 181 kts 193°
2026-04-28 01:16 42.69689 -78.99632 15990 ft 182 kts 193°
2026-04-28 01:16 42.68434 -78.99943 16595 ft 184 kts 193°
2026-04-28 01:16 42.67170 -79.00256 17197 ft 186 kts 192°
2026-04-28 01:17 42.65892 -79.00572 17804 ft 188 kts 192°
2026-04-28 01:17 42.64601 -79.00892 18407 ft 189 kts 192°
2026-04-28 01:17 42.63297 -79.01214 18921 ft 192 kts 193°
2026-04-28 01:17 42.61978 -79.01541 19425 ft 194 kts 193°
2026-04-28 01:18 42.60641 -79.01872 19941 ft 197 kts 194°
2026-04-28 01:18 42.59288 -79.02206 20461 ft 199 kts 194°
2026-04-28 01:18 42.57921 -79.02544 20973 ft 201 kts 195°
2026-04-28 01:18 42.56537 -79.02885 21486 ft 203 kts 195°
2026-04-28 01:19 42.55138 -79.03231 21986 ft 206 kts 196°
2026-04-28 01:19 42.53723 -79.03580 22489 ft 208 kts 197°
2026-04-28 01:19 42.52292 -79.03933 22977 ft 210 kts 197°
2026-04-28 01:19 42.50844 -79.04290 23477 ft 212 kts 197°
2026-04-28 01:20 42.49383 -79.04650 23905 ft 215 kts 198°
2026-04-28 01:20 42.47907 -79.05013 24307 ft 217 kts 198°
2026-04-28 01:20 42.46419 -79.05379 24710 ft 218 kts 198°
2026-04-28 01:20 42.44916 -79.05749 25106 ft 220 kts 198°
2026-04-28 01:21 42.43402 -79.06121 25495 ft 222 kts 198°
2026-04-28 01:21 42.41875 -79.06496 25867 ft 225 kts 198°
2026-04-28 01:21 42.40288 -79.06892 25988 ft 241 kts 198°
2026-04-28 01:21 42.38585 -79.07317 26002 ft 257 kts 197°
2026-04-28 01:22 42.36781 -79.07757 26001 ft 268 kts 197°
2026-04-28 01:22 42.34919 -79.08208 26004 ft 275 kts 197°
2026-04-28 01:22 42.33015 -79.08672 26007 ft 280 kts 197°
2026-04-28 01:22 42.31090 -79.09143 26043 ft 283 kts 197°
2026-04-28 01:23 42.29149 -79.09617 26047 ft 284 kts 197°
2026-04-28 01:23 42.27189 -79.10098 26050 ft 289 kts 197°
2026-04-28 01:23 42.25227 -79.10579 26052 ft 292 kts 196°
2026-04-28 01:23 42.23218 -79.11068 26051 ft 294 kts 196°
2026-04-28 01:24 42.21197 -79.11561 26052 ft 296 kts 196°
2026-04-28 01:24 42.19181 -79.12051 26051 ft 291 kts 197°
2026-04-28 01:24 42.17236 -79.12655 26044 ft 284 kts 200°
2026-04-28 01:24 42.15328 -79.13291 26038 ft 282 kts 200°
2026-04-28 01:25 42.13428 -79.13915 26036 ft 280 kts 200°
2026-04-28 01:25 42.11536 -79.14532 26036 ft 279 kts 200°
2026-04-28 01:25 42.09652 -79.15149 26038 ft 278 kts 200°
2026-04-28 01:25 42.07771 -79.15766 26036 ft 278 kts 200°
2026-04-28 01:26 42.05889 -79.16381 26037 ft 278 kts 200°
2026-04-28 01:26 42.04009 -79.16996 26035 ft 278 kts 200°
2026-04-28 01:26 42.02128 -79.17610 26037 ft 278 kts 200°
2026-04-28 01:26 42.00247 -79.18224 26038 ft 278 kts 200°
2026-04-28 01:27 41.98367 -79.18838 26040 ft 278 kts 200°
2026-04-28 01:27 41.96486 -79.19452 26039 ft 278 kts 200°
2026-04-28 01:27 41.94603 -79.20066 26039 ft 279 kts 200°
2026-04-28 01:27 41.92720 -79.20679 26040 ft 278 kts 200°
2026-04-28 01:28 41.90841 -79.21291 26041 ft 278 kts 200°
2026-04-28 01:28 41.88956 -79.21904 26037 ft 278 kts 200°
2026-04-28 01:28 41.87078 -79.22514 26041 ft 278 kts 200°
2026-04-28 01:28 41.85198 -79.23126 26041 ft 278 kts 200°
2026-04-28 01:29 41.83317 -79.23737 26042 ft 278 kts 200°
2026-04-28 01:29 41.81433 -79.24348 26042 ft 279 kts 200°
2026-04-28 01:29 41.79550 -79.24959 26044 ft 279 kts 200°
2026-04-28 01:29 41.77664 -79.25571 26040 ft 279 kts 200°
2026-04-28 01:30 41.75779 -79.26181 26040 ft 279 kts 200°
2026-04-28 01:30 41.73893 -79.26792 26040 ft 279 kts 200°
2026-04-28 01:30 41.72007 -79.27403 26042 ft 279 kts 200°
2026-04-28 01:30 41.70121 -79.28013 26042 ft 279 kts 200°
2026-04-28 01:31 41.68234 -79.28622 26043 ft 279 kts 200°
2026-04-28 01:31 41.66350 -79.29230 26044 ft 278 kts 199°
2026-04-28 01:31 41.64465 -79.29840 26045 ft 279 kts 199°
2026-04-28 01:31 41.62579 -79.30448 26036 ft 279 kts 199°
2026-04-28 01:32 41.60692 -79.31056 26040 ft 279 kts 199°
2026-04-28 01:32 41.58803 -79.31665 26015 ft 280 kts 199°
2026-04-28 01:32 41.56887 -79.32285 25732 ft 287 kts 199°
2026-04-28 01:32 41.54932 -79.32915 25366 ft 291 kts 199°
2026-04-28 01:33 41.52965 -79.33545 24982 ft 284 kts 199°
2026-04-28 01:33 41.51138 -79.34120 24613 ft 256 kts 199°
2026-04-28 01:33 41.49479 -79.34651 24282 ft 239 kts 200°
2026-04-28 01:33 41.47866 -79.35181 23980 ft 245 kts 200°
2026-04-28 01:34 41.46173 -79.35735 23651 ft 255 kts 199°
2026-04-28 01:34 41.44427 -79.36292 23279 ft 259 kts 199°
2026-04-28 01:34 41.42669 -79.36849 22930 ft 260 kts 199°
2026-04-28 01:34 41.40913 -79.37411 22587 ft 259 kts 198°
2026-04-28 01:35 41.39162 -79.37973 22240 ft 258 kts 198°
2026-04-28 01:35 41.37416 -79.38532 21897 ft 258 kts 198°
2026-04-28 01:35 41.35674 -79.39089 21558 ft 257 kts 198°
2026-04-28 01:35 41.33939 -79.39644 21217 ft 256 kts 198°
2026-04-28 01:36 41.32209 -79.40196 20881 ft 255 kts 197°
2026-04-28 01:36 41.30485 -79.40747 20546 ft 254 kts 197°
2026-04-28 01:36 41.28791 -79.41288 20217 ft 253 kts 197°
2026-04-28 01:36 41.27078 -79.41835 19882 ft 255 kts 197°
2026-04-28 01:37 41.25333 -79.42392 19543 ft 259 kts 197°
2026-04-28 01:37 41.23574 -79.42952 19200 ft 260 kts 196°
2026-04-28 01:37 41.21817 -79.43511 18851 ft 259 kts 196°
2026-04-28 01:37 41.20066 -79.44068 18504 ft 258 kts 196°
2026-04-28 01:38 41.18325 -79.44623 18133 ft 256 kts 196°
2026-04-28 01:38 41.16602 -79.45170 17787 ft 254 kts 196°
2026-04-28 01:38 41.14947 -79.45912 17449 ft 249 kts 208°
2026-04-28 01:38 41.13501 -79.47142 17121 ft 246 kts 221°
2026-04-28 01:39 41.12233 -79.48656 16800 ft 245 kts 223°
2026-04-28 01:39 41.10967 -79.50161 16472 ft 244 kts 223°
2026-04-28 01:39 41.09705 -79.51654 16158 ft 243 kts 223°
2026-04-28 01:39 41.08450 -79.53145 15836 ft 242 kts 223°
2026-04-28 01:40 41.07201 -79.54629 15517 ft 241 kts 223°
2026-04-28 01:40 41.05958 -79.56105 15202 ft 239 kts 223°
2026-04-28 01:40 41.04719 -79.57575 14882 ft 238 kts 223°
2026-04-28 01:40 41.03487 -79.59036 14565 ft 237 kts 223°
2026-04-28 01:41 41.02259 -79.60490 14252 ft 236 kts 223°
2026-04-28 01:41 41.01034 -79.61941 13936 ft 235 kts 223°
2026-04-28 01:41 40.99819 -79.63380 13601 ft 234 kts 222°
2026-04-28 01:41 40.98608 -79.64812 13286 ft 233 kts 222°
2026-04-28 01:42 40.97401 -79.66240 12979 ft 232 kts 222°
2026-04-28 01:42 40.96201 -79.67658 12670 ft 231 kts 222°
2026-04-28 01:42 40.95003 -79.69073 12367 ft 231 kts 221°
2026-04-28 01:42 40.93797 -79.70498 12059 ft 231 kts 221°
2026-04-28 01:43 40.92612 -79.71897 11759 ft 229 kts 221°
2026-04-28 01:43 40.91440 -79.73279 11460 ft 229 kts 221°
2026-04-28 01:43 40.90252 -79.74680 11157 ft 229 kts 221°
2026-04-28 01:43 40.89065 -79.76078 10856 ft 230 kts 221°
2026-04-28 01:44 40.87856 -79.77501 10551 ft 234 kts 221°
2026-04-28 01:44 40.86632 -79.78917 10239 ft 234 kts 217°
2026-04-28 01:44 40.85239 -79.79988 10074 ft 229 kts 203°
2026-04-28 01:44 40.83735 -79.80587 10029 ft 224 kts 192°
2026-04-28 01:45 40.82214 -79.80985 10028 ft 222 kts 192°
2026-04-28 01:45 40.80708 -79.81399 10028 ft 221 kts 192°
2026-04-28 01:45 40.79204 -79.81811 10027 ft 220 kts 193°
2026-04-28 01:45 40.77773 -79.82518 10023 ft 220 kts 208°
2026-04-28 01:46 40.76528 -79.83688 10023 ft 221 kts 221°
2026-04-28 01:46 40.75468 -79.85161 10022 ft 221 kts 225°
2026-04-28 01:46 40.74412 -79.86640 10025 ft 221 kts 225°
2026-04-28 01:46 40.73355 -79.88112 10026 ft 221 kts 225°
2026-04-28 01:47 40.72300 -79.89589 10025 ft 221 kts 225°
2026-04-28 01:47 40.71245 -79.91067 10025 ft 221 kts 225°
2026-04-28 01:47 40.70191 -79.92541 10030 ft 221 kts 225°
2026-04-28 01:47 40.69137 -79.94014 10028 ft 221 kts 225°
2026-04-28 01:48 40.68085 -79.95485 10028 ft 220 kts 225°
2026-04-28 01:48 40.67020 -79.96971 9766 ft 228 kts 225°
2026-04-28 01:48 40.65922 -79.98503 9383 ft 231 kts 225°
2026-04-28 01:48 40.64819 -80.00044 9006 ft 231 kts 225°
2026-04-28 01:49 40.63721 -80.01576 8631 ft 230 kts 225°
2026-04-28 01:49 40.62628 -80.03099 8261 ft 228 kts 225°
2026-04-28 01:49 40.61547 -80.04606 8020 ft 223 kts 225°
2026-04-28 01:49 40.60503 -80.06059 8001 ft 216 kts 225°
2026-04-28 01:50 40.59481 -80.07484 7997 ft 213 kts 226°
2026-04-28 01:50 40.58634 -80.09079 7988 ft 214 kts 240°
2026-04-28 01:50 40.58116 -80.10922 7988 ft 217 kts 253°
2026-04-28 01:50 40.57965 -80.12912 7990 ft 222 kts 267°
2026-04-28 01:51 40.58047 -80.14940 7991 ft 222 kts 268°
2026-04-28 01:51 40.58117 -80.16964 7995 ft 221 kts 268°
2026-04-28 01:51 40.58187 -80.18979 7997 ft 221 kts 268°
2026-04-28 01:51 40.58258 -80.20996 7999 ft 221 kts 268°
2026-04-28 01:52 40.58330 -80.23016 8001 ft 221 kts 268°
2026-04-28 01:52 40.58403 -80.25035 8001 ft 221 kts 267°
2026-04-28 01:52 40.58472 -80.27099 7675 ft 230 kts 267°
2026-04-28 01:52 40.58549 -80.29212 7317 ft 232 kts 268°
2026-04-28 01:53 40.58642 -80.31332 6963 ft 232 kts 268°
2026-04-28 01:53 40.58731 -80.33448 6615 ft 232 kts 268°
2026-04-28 01:53 40.58817 -80.35533 6257 ft 231 kts 267°
2026-04-28 01:53 40.58901 -80.37647 5878 ft 232 kts 267°
2026-04-28 01:54 40.58996 -80.39766 5508 ft 233 kts 269°
2026-04-28 01:54 40.59213 -80.41886 5139 ft 234 kts 272°
2026-04-28 01:54 40.59481 -80.44003 4762 ft 235 kts 272°
2026-04-28 01:54 40.59762 -80.46129 4384 ft 237 kts 273°
2026-04-28 01:55 40.60052 -80.48277 4039 ft 239 kts 273°
2026-04-28 01:55 40.60349 -80.50405 3985 ft 233 kts 273°
2026-04-28 01:55 40.60645 -80.52483 3983 ft 231 kts 273°
2026-04-28 01:55 40.60930 -80.54554 3980 ft 227 kts 271°
2026-04-28 01:56 40.60749 -80.56511 3967 ft 209 kts 239°
2026-04-28 01:56 40.59805 -80.57843 3973 ft 198 kts 205°
2026-04-28 01:56 40.58522 -80.58414 3975 ft 193 kts 192°
2026-04-28 01:56 40.57220 -80.58838 3979 ft 193 kts 191°
2026-04-28 01:57 40.55915 -80.59249 3978 ft 193 kts 192°
2026-04-28 01:57 40.54607 -80.59648 3979 ft 193 kts 191°
2026-04-28 01:57 40.53297 -80.60043 3983 ft 193 kts 191°
2026-04-28 01:57 40.51990 -80.60435 3983 ft 193 kts 191°
2026-04-28 01:58 40.50688 -80.60827 3981 ft 192 kts 191°
2026-04-28 01:58 40.49382 -80.61217 3980 ft 192 kts 191°
2026-04-28 01:58 40.48070 -80.61351 3972 ft 192 kts 169°
2026-04-28 01:58 40.46967 -80.60446 3967 ft 187 kts 134°
2026-04-28 01:59 40.46572 -80.58797 3962 ft 200 kts 97°
2026-04-28 01:59 40.47043 -80.57034 3973 ft 213 kts 65°
2026-04-28 01:59 40.47893 -80.55429 3978 ft 215 kts 61°
2026-04-28 01:59 40.48771 -80.53829 3929 ft 218 kts 61°
2026-04-28 02:00 40.49664 -80.52204 3764 ft 220 kts 61°
2026-04-28 02:00 40.50554 -80.50568 3590 ft 217 kts 66°
2026-04-28 02:00 40.50899 -80.49387 3469 ft 204 kts 90°
2026-04-28 02:00 40.50825 -80.47613 3287 ft 191 kts 106°
2026-04-28 02:01 40.50722 -80.45870 3117 ft 192 kts 102°
2026-04-28 02:01 40.50672 -80.44127 2988 ft 188 kts 101°
2026-04-28 02:01 40.50625 -80.41965 2965 ft 173 kts 101°
2026-04-28 02:01 40.50594 -80.40911 2977 ft 170 kts 102°
2026-04-28 02:02 40.50543 -80.38884 2966 ft 157 kts 103°
2026-04-28 02:02 40.50529 -80.37995 2883 ft 125 kts 105°
2026-04-28 02:02 40.50507 -80.36989 2746 ft 101 kts 108°
2026-04-28 02:02 40.50476 -80.36113 2635 ft 98 kts 110°
2026-04-28 02:03 40.50447 -80.35221 2488 ft 94 kts 109°
2026-04-28 02:03 40.50425 -80.34401 2371 ft 90 kts 109°
2026-04-28 02:03 40.50399 -80.33565 2250 ft 93 kts 106°
2026-04-28 02:03 40.50377 -80.32719 2113 ft 92 kts 104°
2026-04-28 02:04 40.50357 -80.31897 1991 ft 92 kts 102°
2026-04-28 02:04 40.50336 -80.31033 1849 ft 94 kts 100°
2026-04-28 02:04 40.50324 -80.30200 1722 ft 91 kts 98°
2026-04-28 02:04 40.50321 -80.29369 1589 ft 91 kts 96°
2026-04-28 02:05 40.50274 -80.28545 1492 ft 90 kts 98°
2026-04-28 02:05 40.50261 -80.27732 1363 ft 89 kts 97°
2026-04-28 02:05 40.50230 -80.26928 1235 ft 87 kts 96°
2026-04-28 02:05 40.50210 -80.26205 1204 ft 67 kts 92°
2026-04-28 02:06 40.50196 -80.25660 1195 ft 56 kts 90°
2026-04-28 02:06 40.50183 -80.25169 1189 ft 54 kts 92°
2026-04-28 02:06 40.50171 -80.24626 1193 ft 67 kts 93°
2026-04-28 02:06 40.50154 -80.24013 1187 ft 65 kts 91°
2026-04-28 02:07 40.50138 -80.23482 1177 ft 37 kts 95°
2026-04-28 02:07 40.50038 -80.23210 1175 ft 21 kts 121°
2026-04-28 02:07 40.49967 -80.23038 1173 ft 29 kts 117°
2026-04-28 02:07 40.49847 -80.22751 1157 ft 42 kts 122°
2026-04-28 02:08 40.49709 -80.22434 1153 ft 34 kts 120°
2026-04-28 02:08 40.49645 -80.22222 1152 ft 18 kts 104°
2026-04-28 02:08 40.49611 -80.22118 1150 ft 1 kts 167°